This demonstration page uses our WeatherBlox Daily Observations layout. Learn more.

Left ArrowRight Arrow

Hourly Observations for October 10, 2019

Temp ( °F °C ) Dew Point ( °F °C ) Humidity (%) Winds ( mph kmh ) Pressure ( in mb ) Visibility ( mi km ) Precip ( " mm )
12:53 am 00:53 Clear 61 16.1 58 14.4 90 90 Calm 30.12 1020 10 16 0.00 0.00
1:53 am 01:53 Clear 61 16.1 58 14.4 90 90 Calm 30.12 1020 10 16 0.00 0.00
2:53 am 02:53 Cloudy 61 16.1 59 15 93 93 Calm 30.12 1020 10 16 0.00 0.00
3:53 am 03:53 Mostly Clear 61 16.1 58 14.4 90 90 Calm 30.12 1020 10 16 0.00 0.00
4:53 am 04:53 Mostly Cloudy 61 16.1 58 14.4 90 90 NNE 3 6 30.13 1020 10 16 0.00 0.00
5:53 am 05:53 Clear 60 15.6 57 13.9 90 90 Calm 30.14 1021 10 16 0.00 0.00
6:53 am 06:53 Clear 59 15 57 13.9 93 93 Calm 30.15 1021 10 16 0.00 0.00
7:53 am 07:53 Mostly Cloudy 60 15.6 57 13.9 90 90 NNE 6 9 30.16 1022 10 16 0.00 0.00
8:53 am 08:53 Partly Cloudy 63 17.2 60 15.6 90 90 NNE 3 6 30.17 1022 10 16 0.00 0.00
9:53 am 09:53 Partly Cloudy 67 19.4 59 15 76 76 ENE 7 11 30.19 1022 10 16 0.00 0.00
10:53 am 10:53 Mostly Sunny 69 20.6 59 15 70 70 E 10 17 30.19 1022 10 16 0.00 0.00
11:07 am 11:07 Mostly Cloudy 69 20.6 59 15 70 70 ENE 10 17 30.19 1022 10 16 0.00 0.00
11:53 am 11:53 Cloudy 71 21.7 59 15 66 66 ENE 8 13 30.19 1022 10 16 0.00 0.00
12:53 pm 12:53 Cloudy 70 21.1 58 14.4 66 66 ENE 9 15 30.19 1022 10 16 0.00 0.00
1:53 pm 13:53 Cloudy 71 21.7 59 15 66 66 NE 8 13 30.17 1022 10 16 0.00 0.00
2:28 pm 14:28 Partly Cloudy 73 22.8 59 15 62 62 ENE 8 13 30.13 1020 10 16 0.00 0.00
2:53 pm 14:53 Mostly Sunny 74 23.3 58 14.4 57 57 VRB 3 6 30.13 1020 10 16 0.00 0.00
3:53 pm 15:53 Sunny 76 24.4 58 14.4 54 54 N 8 13 30.10 1019 10 16 0.00 0.00
4:53 pm 16:53 Sunny 77 25 57 13.9 50 50 NE 8 13 30.08 1019 10 16 0.00 0.00
5:53 pm 17:53 Sunny 78 25.6 57 13.9 48 48 NE 6 9 30.08 1019 10 16 0.00 0.00
6:53 pm 18:53 Sunny 74 23.3 57 13.9 56 56 Calm 30.08 1019 10 16 0.00 0.00
7:53 pm 19:53 Clear 68 20 60 15.6 76 76 Calm 30.07 1018 10 16 0.00 0.00
8:53 pm 20:53 Clear 66 18.9 59 15 78 78 Calm 30.08 1019 10 16 0.00 0.00
9:53 pm 21:53 Clear 63 17.2 59 15 87 87 Calm 30.10 1019 10 16 0.00 0.00
10:53 pm 22:53 Clear 62 16.7 59 15 90 90 Calm 30.11 1020 10 16 0.00 0.00
11:53 pm 23:53 Clear 61 16.1 58 14.4 90 90 Calm 30.12 1020 10 16 0.00 0.00

Powered by AerisWeather